This demonstration page uses our WeatherBlox Daily Observations layout. Learn more.

Left ArrowRight Arrow

40.92945, -100.16068

Hourly Observations for February 22, 2015

Temp ( °F °C ) Dew Point ( °F °C ) Humidity (%) Winds ( mph kmh ) Pressure ( in mb ) Visibility ( mi km ) Precip ( " mm )
12:15 am 00:15 Cloudy with Light Snow 20 -6.6 16 -8.7 85 85 NNE 14 22 30.56 1035 2 3 N/A
12:35 am 00:35 Cloudy with Light Snow 19 -7 16 -8.8 87 87 NNE 8 13 30.56 1035 3 5 N/A
12:55 am 00:55 Cloudy with Light Snow 19 -7 15 -9.2 85 85 N 10 17 30.56 1035 5 8 N/A
1:15 am 01:15 Cloudy with Light Snow 19 -7.3 15 -9.5 84 84 N 12 19 30.56 1035 3 5 N/A
1:35 am 01:35 Cloudy with Light Snow 19 -7.5 15 -9.5 86 86 N 8 13 30.56 1035 3 4 N/A
1:55 am 01:55 Cloudy with Snow 18 -7.7 15 -9.3 88 88 N 10 17 30.62 1037 1 1 N/A
2:15 am 02:15 Cloudy with Light Snow 17 -8.2 14 -10.2 86 86 NNE 15 24 30.62 1037 2 3 N/A
2:35 am 02:35 Cloudy with Light Snow 17 -8.3 13 -10.6 84 84 N 12 19 30.62 1037 3 4 N/A
2:55 am 02:55 Cloudy with Light Snow 17 -8.5 13 -10.5 86 86 NNE 8 13 30.62 1037 5 8 N/A
3:15 am 03:15 Cloudy 17 -8.5 13 -10.6 85 85 N 6 9 30.62 1037 10 16 N/A
3:35 am 03:35 Cloudy with Light Snow 17 -8.5 13 -10.5 86 86 NNE 3 6 30.62 1037 5 8 N/A
3:55 am 03:55 Cloudy with Light Snow 17 -8.5 12 -11 82 82 NNE 8 13 30.62 1037 5 8 N/A
4:15 am 04:15 Cloudy with Haze 17 -8.6 11 -11.4 80 80 NNE 7 11 30.62 1037 5 8 N/A
4:35 am 04:35 Cloudy 16 -8.7 11 -11.5 80 80 NNE 7 11 30.62 1037 10 16 N/A
4:55 am 04:55 Cloudy 16 -8.7 11 -11.6 80 80 NNE 9 15 30.65 1038 7 11 N/A
5:15 am 05:15 Cloudy 16 -8.8 11 -11.8 79 79 N 7 11 30.65 1038 10 16 N/A
5:35 am 05:35 Cloudy with Light Snow 16 -9 12 -11.3 84 84 N 7 11 30.65 1038 5 8 N/A
5:55 am 05:55 Cloudy 16 -9 12 -11.1 85 85 N 7 11 30.65 1038 10 16 N/A
6:15 am 06:15 Cloudy 15 -9.2 11 -11.4 84 84 NNE 6 9 30.68 1039 10 16 N/A
6:35 am 06:35 Cloudy 16 -9.1 11 -11.7 82 82 N 6 9 30.68 1039 10 16 N/A
6:55 am 06:55 Cloudy 16 -9.1 10 -12.4 77 77 NNE 10 17 30.68 1039 10 16 N/A
7:15 am 07:15 Cloudy 15 -9.2 7 -13.8 70 70 N 15 24 30.71 1040 10 16 N/A
7:35 am 07:35 Mostly Cloudy 15 -9.7 7 -14 71 71 N 12 19 30.74 1041 10 16 N/A
7:55 am 07:55 Mostly Cloudy 14 -10 7 -14 73 73 N 12 19 30.77 1042 10 16 N/A
8:15 am 08:15 Mostly Cloudy 14 -10.2 7 -13.7 76 76 N 9 15 30.77 1042 10 16 N/A
8:35 am 08:35 Mostly Cloudy 14 -10.1 7 -13.7 75 75 N 10 17 30.80 1043 10 16 N/A
8:55 am 08:55 Mostly Cloudy 14 -10.2 7 -14.1 73 73 NNE 7 11 30.80 1043 10 16 N/A
9:15 am 09:15 Partly Cloudy 13 -10.4 6 -14.6 72 72 N 13 20 30.80 1043 10 16 N/A
9:35 am 09:35 Partly Cloudy 13 -10.3 4 -15.5 66 66 NNE 10 17 30.80 1043 10 16 N/A
9:55 am 09:55 Mostly Cloudy 13 -10.5 4 -15.4 68 68 N 15 24 30.80 1043 10 16 N/A
10:15 am 10:15 Cloudy 14 -10 4 -15.6 64 64 N 14 22 30.80 1043 10 16 N/A
10:35 am 10:35 Cloudy 14 -10 4 -15.5 64 64 N 14 22 30.80 1043 10 16 N/A
10:55 am 10:55 Mostly Cloudy 15 -9.7 4 -15.4 63 63 N 14 22 30.80 1043 10 16 N/A
11:15 am 11:15 Partly Cloudy 16 -9.1 4 -15.6 60 60 N 18 30 30.80 1043 10 16 N/A
11:35 am 11:35 Sunny 16 -9 5 -15.1 62 62 N 17 28 30.80 1043 10 16 N/A
11:55 am 11:55 Sunny 16 -9.1 4 -15.6 60 60 N 16 26 30.83 1044 10 16 N/A
12:15 pm 12:15 Sunny 16 -9.1 4 -15.6 60 60 N 13 20 30.80 1043 10 16 N/A
12:35 pm 12:35 Sunny 16 -8.7 4 -15.5 58 58 N 16 26 30.80 1043 10 16 N/A
12:55 pm 12:55 Sunny 17 -8.5 5 -14.8 61 61 N 15 24 30.77 1042 10 16 N/A
1:15 pm 13:15 Sunny 17 -8.5 5 -15 60 60 N 15 24 30.77 1042 10 16 N/A
1:35 pm 13:35 Sunny 17 -8.4 5 -15 59 59 N 14 22 30.74 1041 10 16 N/A
1:55 pm 13:55 Sunny 18 -8 5 -14.9 58 58 N 13 20 30.74 1041 10 16 N/A
2:15 pm 14:15 Partly Cloudy 18 -7.7 6 -14.7 58 58 N 15 24 30.74 1041 10 16 N/A
2:35 pm 14:35 Partly Cloudy 19 -7.5 6 -14.6 57 57 N 13 20 30.74 1041 10 16 N/A
2:55 pm 14:55 Partly Cloudy 19 -7.5 5 -14.8 56 56 N 13 20 30.74 1041 10 16 N/A
3:15 pm 15:15 Partly Cloudy 19 -7.5 4 -15.3 54 54 NNE 10 17 30.74 1041 10 16 N/A
3:35 pm 15:35 Partly Cloudy 19 -7.5 4 -15.4 54 54 NNE 13 20 30.74 1041 10 16 N/A
3:55 pm 15:55 Sunny 19 -7.4 5 -15.2 54 54 N 10 17 30.74 1041 10 16 N/A
4:15 pm 16:15 Sunny 19 -7.5 4 -15.3 54 54 N 13 20 30.74 1041 10 16 N/A
4:35 pm 16:35 Sunny 19 -7.4 5 -15.1 54 54 NNE 12 19 30.74 1041 10 16 N/A
4:55 pm 16:55 Sunny 18 -7.7 4 -15.6 54 54 N 9 15 30.74 1041 10 16 N/A
5:15 pm 17:15 Sunny 18 -8 4 -15.8 54 54 N 12 19 30.74 1041 10 16 N/A
5:35 pm 17:35 Sunny 17 -8.2 3 -16.1 53 53 NNE 9 15 30.74 1041 10 16 N/A
5:55 pm 17:55 Sunny 17 -8.5 3 -16.2 54 54 NNE 10 17 30.74 1041 10 16 N/A
6:15 pm 18:15 Sunny 16 -8.8 2 -16.5 54 54 NNE 9 15 30.80 1043 10 16 N/A
6:35 pm 18:35 Clear 15 -9.3 3 -16.3 57 57 NE 7 11 30.80 1043 10 16 N/A
6:55 pm 18:55 Clear 14 -9.8 3 -16 61 61 NE 7 11 30.80 1043 10 16 N/A
7:15 pm 19:15 Partly Cloudy 14 -10 3 -16 62 62 NE 7 11 30.80 1043 10 16 N/A
7:35 pm 19:35 Partly Cloudy 14 -10 2 -16.4 60 60 NE 5 7 30.83 1044 10 16 N/A
7:55 pm 19:55 Clear 13 -10.5 2 -16.5 62 62 NE 6 9 30.83 1044 10 16 N/A
8:15 pm 20:15 Clear 13 -10.3 3 -16.3 62 62 NE 6 9 30.83 1044 10 16 N/A
8:35 pm 20:35 Partly Cloudy 14 -10.2 2 -16.4 61 61 NE 7 11 30.83 1044 10 16 N/A
8:55 pm 20:55 Partly Cloudy 13 -10.4 2 -16.8 60 60 NE 8 13 30.83 1044 10 16 N/A
9:15 pm 21:15 Clear 13 -10.7 1 -17 60 60 NE 7 11 30.89 1046 10 16 N/A
9:35 pm 21:35 Clear 12 -11.3 1 -17.2 62 62 NE 7 11 30.89 1046 10 16 N/A
9:55 pm 21:55 Clear 10 -12.1 0 -17.6 64 64 ENE 6 9 30.89 1046 10 16 N/A
10:15 pm 22:15 Clear 10 -12 2 -16.6 69 69 E 5 7 30.92 1047 10 16 N/A
10:35 pm 22:35 Clear 10 -12.1 0 -17.7 63 63 E 7 11 30.89 1046 10 16 N/A
10:55 pm 22:55 Clear 9 -12.7 0 -18 65 65 E 3 6 30.92 1047 10 16 N/A
11:15 pm 23:15 Clear 9 -13 -2 -18.7 63 63 E 3 6 30.92 1047 10 16 N/A
11:35 pm 23:35 Clear 8 -13.3 -1 -18.4 66 66 ENE 5 7 30.92 1047 10 16 N/A
11:55 pm 23:55 Clear 8 -13.5 -1 -18.1 69 69 E 3 6 30.92 1047 10 16 N/A

Powered by AerisWeather